Stündliche Wetter Holovkivka

Heute, 15 Juni, Dienstag

Zeit Temperatur Niederschläge Wind Luftdruck Luftfeuchtigkeit
00:00 +17°C° 0.1 mm 2 m/S 742 mmHg 87%
01:00 +17°C° 0.1 mm 2 m/S 742 mmHg 89%
02:00 +17°C° 0.1 mm 3 m/S 742 mmHg 91%
03:00 +17°C° 0 mm 2 m/S 742 mmHg 91%
04:00 +17°C° 0 mm 2 m/S 742 mmHg 91%
05:00 +17°C° 0 mm 2 m/S 742 mmHg 91%
06:00 +19°C° 0.1 mm 3 m/S 742 mmHg 86%
07:00 +20°C° 0.1 mm 3 m/S 742 mmHg 82%
08:00 +22°C° 0.1 mm 4 m/S 742 mmHg 77%
09:00 +23°C° 0.4 mm 4 m/S 742 mmHg 72%
10:00 +25°C° 0.4 mm 3 m/S 742 mmHg 67%
11:00 +26°C° 0.4 mm 3 m/S 742 mmHg 62%
12:00 +26°C° 0.3 mm 3 m/S 742 mmHg 61%
13:00 +26°C° 0.3 mm 4 m/S 741 mmHg 61%
14:00 +26°C° 0.3 mm 4 m/S 741 mmHg 60%
15:00 +26°C° 0.3 mm 4 m/S 741 mmHg 64%
16:00 +25°C° 0.3 mm 3 m/S 740 mmHg 68%
17:00 +25°C° 0.3 mm 3 m/S 740 mmHg 71%
18:00 +22°C° 0.6 mm 3 m/S 740 mmHg 76%
19:00 +21°C° 0.6 mm 3 m/S 740 mmHg 81%
20:00 +19°C° 0.6 mm 3 m/S 740 mmHg 86%
21:00 +19°C° 0.6 mm 3 m/S 740 mmHg 87%
22:00 +18°C° 0.6 mm 2 m/S 740 mmHg 88%
23:00 +18°C° 0.6 mm 2 m/S 740 mmHg 88%

Morgen, 16 Juni, Mittwoch

Zeit Temperatur Niederschläge Wind Luftdruck Luftfeuchtigkeit
00:00 +18°C° 0.7 mm 2 m/S 740 mmHg 89%
01:00 +18°C° 0.7 mm 2 m/S 740 mmHg 90%
02:00 +18°C° 0.7 mm 2 m/S 740 mmHg 90%
03:00 +18°C° 0.5 mm 2 m/S 740 mmHg 92%
04:00 +18°C° 0.5 mm 2 m/S 740 mmHg 93%
05:00 +18°C° 0.5 mm 2 m/S 740 mmHg 94%
06:00 +19°C° 0.1 mm 2 m/S 740 mmHg 92%
07:00 +19°C° 0.1 mm 2 m/S 741 mmHg 89%
08:00 +20°C° 0.1 mm 2 m/S 741 mmHg 87%
09:00 +21°C° 0.7 mm 2 m/S 741 mmHg 81%
10:00 +24°C° 0.7 mm 2 m/S 741 mmHg 76%
11:00 +25°C° 0.7 mm 2 m/S 742 mmHg 71%
12:00 +25°C° 0.3 mm 2 m/S 742 mmHg 67%
13:00 +26°C° 0.3 mm 2 m/S 742 mmHg 64%
14:00 +26°C° 0.3 mm 2 m/S 742 mmHg 61%
15:00 +26°C° 0.2 mm 3 m/S 742 mmHg 64%
16:00 +26°C° 0.2 mm 3 m/S 742 mmHg 67%
17:00 +25°C° 0.2 mm 3 m/S 742 mmHg 71%
18:00 +24°C° 0.4 mm 3 m/S 742 mmHg 76%
19:00 +21°C° 0.4 mm 3 m/S 742 mmHg 81%
20:00 +20°C° 0.4 mm 3 m/S 743 mmHg 86%
21:00 +20°C° 0.2 mm 3 m/S 743 mmHg 87%
22:00 +19°C° 0.2 mm 3 m/S 743 mmHg 89%
23:00 +19°C° 0.2 mm 3 m/S 743 mmHg 90%

übermorgen, 17 Juni, Donnerstag

Zeit Temperatur Niederschläge Wind Luftdruck Luftfeuchtigkeit
00:00 +19°C° 0 mm 3 m/S 743 mmHg 91%
01:00 +18°C° 0 mm 3 m/S 743 mmHg 93%
02:00 +18°C° 0 mm 4 m/S 743 mmHg 94%
03:00 +18°C° 0 mm 4 m/S 743 mmHg 94%
04:00 +19°C° 0 mm 5 m/S 743 mmHg 94%
05:00 +19°C° 0 mm 5 m/S 744 mmHg 94%
06:00 +20°C° 0 mm 5 m/S 744 mmHg 90%
07:00 +21°C° 0 mm 6 m/S 744 mmHg 86%
08:00 +22°C° 0 mm 6 m/S 745 mmHg 82%
09:00 +23°C° 0.1 mm 7 m/S 745 mmHg 79%
10:00 +24°C° 0.1 mm 7 m/S 745 mmHg 75%
11:00 +26°C° 0.1 mm 7 m/S 745 mmHg 71%
12:00 +26°C° 0.1 mm 7 m/S 745 mmHg 70%
13:00 +27°C° 0.1 mm 8 m/S 745 mmHg 69%
14:00 +27°C° 0.1 mm 8 m/S 745 mmHg 68%
15:00 +26°C° 0.2 mm 8 m/S 745 mmHg 70%
16:00 +26°C° 0.2 mm 8 m/S 746 mmHg 73%
17:00 +24°C° 0.2 mm 8 m/S 746 mmHg 75%
18:00 +23°C° 0.2 mm 7 m/S 746 mmHg 78%
19:00 +22°C° 0.2 mm 7 m/S 747 mmHg 81%
20:00 +21°C° 0.2 mm 6 m/S 747 mmHg 84%
21:00 +20°C° 0 mm 6 m/S 747 mmHg 85%
22:00 +20°C° 0 mm 6 m/S 747 mmHg 87%
23:00 +19°C° 0 mm 6 m/S 747 mmHg 89%

18 Juni, Freitag

Zeit Temperatur Niederschläge Wind Luftdruck Luftfeuchtigkeit
00:00 +19°C° 0 mm 6 m/S 747 mmHg 89%
01:00 +17°C° 0 mm 5 m/S 748 mmHg 90%
02:00 +17°C° 0 mm 5 m/S 748 mmHg 90%
03:00 +17°C° 0 mm 5 m/S 748 mmHg 90%
04:00 +16°C° 0 mm 5 m/S 748 mmHg 90%
05:00 +16°C° 0 mm 6 m/S 748 mmHg 90%
06:00 +17°C° 0 mm 6 m/S 748 mmHg 86%
07:00 +19°C° 0 mm 6 m/S 749 mmHg 82%
08:00 +20°C° 0 mm 7 m/S 749 mmHg 78%
09:00 +21°C° 0 mm 7 m/S 749 mmHg 75%
10:00 +22°C° 0 mm 7 m/S 749 mmHg 72%
11:00 +23°C° 0 mm 7 m/S 749 mmHg 70%
12:00 +24°C° 0 mm 7 m/S 749 mmHg 69%
13:00 +24°C° 0 mm 7 m/S 749 mmHg 68%
14:00 +24°C° 0 mm 7 m/S 749 mmHg 68%
15:00 +24°C° 0.1 mm 6 m/S 749 mmHg 69%
16:00 +24°C° 0.1 mm 6 m/S 749 mmHg 71%
17:00 +23°C° 0.1 mm 6 m/S 749 mmHg 73%
18:00 +22°C° 0 mm 6 m/S 749 mmHg 74%
19:00 +22°C° 0 mm 5 m/S 749 mmHg 74%
20:00 +21°C° 0 mm 5 m/S 749 mmHg 75%
21:00 +20°C° 0 mm 5 m/S 750 mmHg 75%
22:00 +20°C° 0 mm 5 m/S 750 mmHg 75%
23:00 +20°C° 0 mm 5 m/S 750 mmHg 75%

19 Juni, Samstag

Zeit Temperatur Niederschläge Wind Luftdruck Luftfeuchtigkeit
00:00 +20°C° 0 mm 5 m/S 750 mmHg 76%
01:00 +19°C° 0 mm 5 m/S 750 mmHg 77%
02:00 +19°C° 0 mm 4 m/S 750 mmHg 78%
03:00 +18°C° 0 mm 4 m/S 750 mmHg 80%
04:00 +18°C° 0 mm 4 m/S 750 mmHg 82%
05:00 +17°C° 0 mm 4 m/S 750 mmHg 84%
06:00 +19°C° 0 mm 4 m/S 750 mmHg 80%
07:00 +20°C° 0 mm 4 m/S 751 mmHg 76%
08:00 +21°C° 0 mm 5 m/S 751 mmHg 72%
09:00 +22°C° 0 mm 5 m/S 751 mmHg 67%
10:00 +23°C° 0 mm 5 m/S 751 mmHg 63%
11:00 +25°C° 0 mm 5 m/S 750 mmHg 58%
12:00 +26°C° 0 mm 5 m/S 750 mmHg 56%
13:00 +26°C° 0 mm 5 m/S 750 mmHg 54%
14:00 +27°C° 0 mm 5 m/S 750 mmHg 52%
15:00 +26°C° 0 mm 5 m/S 750 mmHg 55%
16:00 +26°C° 0 mm 5 m/S 749 mmHg 58%
17:00 +25°C° 0 mm 5 m/S 749 mmHg 62%
18:00 +23°C° 0 mm 4 m/S 749 mmHg 67%
19:00 +21°C° 0 mm 4 m/S 749 mmHg 72%
20:00 +20°C° 0 mm 4 m/S 749 mmHg 78%
21:00 +19°C° 0 mm 3 m/S 749 mmHg 79%
22:00 +19°C° 0 mm 3 m/S 749 mmHg 81%
23:00 +18°C° 0 mm 3 m/S 749 mmHg 83%

20 Juni, Sonntag

Zeit Temperatur Niederschläge Wind Luftdruck Luftfeuchtigkeit
00:00 +17°C° 0 mm 3 m/S 749 mmHg 84%
01:00 +17°C° 0 mm 3 m/S 749 mmHg 85%
02:00 +17°C° 0 mm 3 m/S 749 mmHg 86%
03:00 +17°C° 0 mm 3 m/S 749 mmHg 87%
04:00 +17°C° 0 mm 3 m/S 749 mmHg 88%
05:00 +17°C° 0 mm 3 m/S 749 mmHg 88%
06:00 +18°C° 0 mm 3 m/S 749 mmHg 82%
07:00 +20°C° 0 mm 4 m/S 749 mmHg 77%
08:00 +21°C° 0 mm 4 m/S 749 mmHg 71%
09:00 +22°C° 0 mm 5 m/S 749 mmHg 66%
10:00 +23°C° 0 mm 5 m/S 749 mmHg 61%
11:00 +26°C° 0 mm 5 m/S 749 mmHg 55%
12:00 +26°C° 0 mm 5 m/S 749 mmHg 53%
13:00 +26°C° 0 mm 5 m/S 748 mmHg 51%
14:00 +27°C° 0 mm 5 m/S 748 mmHg 49%
15:00 +27°C° 0 mm 5 m/S 748 mmHg 52%
16:00 +26°C° 0 mm 5 m/S 748 mmHg 56%
17:00 +26°C° 0 mm 4 m/S 748 mmHg 59%
18:00 +23°C° 0 mm 4 m/S 748 mmHg 65%
19:00 +22°C° 0 mm 4 m/S 748 mmHg 71%
20:00 +20°C° 0 mm 3 m/S 748 mmHg 76%
21:00 +20°C° 0 mm 4 m/S 748 mmHg 78%
22:00 +19°C° 0 mm 4 m/S 747 mmHg 81%
23:00 +19°C° 0 mm 4 m/S 747 mmHg 83%
Mehr zeigen

Wir brauchen deine Erlaubnis

Meteoprog und unser Service Anbieter werden persönliche Daten aufbewahren, so wie Cookies, Geräte Bezeichnung oder ähnliche Technologien von deinem Gerät und Prozess, so wie Persönliche Daten Inhalte und Werbungen, genauso wie social Media und den Verkehr zu analysieren.

  • Aufbewahrung und/oder Zugang zu deiner Geräte Informationen.

    Cookies, Geräte Bezeichnung oder andere Informationen, können aufbewahrt oder Zugang zu deinem Gerät erhalten, für den Grund, der oben angegeben wird.

  • Personalisierte Werbung und Inhalte, Messungen, Einblick in das Publikum und Produkt Entwicklung.

    Werbungen und Inhalte können personalisiert werden, basierend auf ein Profil. Mehr Daten können besser personalisierte Werbungen und Inhalte hinzufügen. Werbung und Inhalte können gezeigt und gemessen werden. Einblicke über das Publikum, welche die Werbung gesehen haben und den Inhalt, können abgeleitet werden. So wie Daten können genutzt werden, um es zu verbessern oder die Benutzer Erfahrung zu verbessern das System und die Software.

Wenn du “Ich stimme zu” klickst, erlaubst du uns, die Cookies zu benutzen die Geräte Bezeichnung, den Web oder ähnliche Technologien zu benutzen. Deine Settings, können in deinem Gerät bei deinem Browser geändert werden.

Für den bestimmten Zweck, berechtigten Interessen beruhen darauf, mehr als auf den Inhalt. Du kannst mehr darüber in unseren Privaten und Cookie Politik lesen.